Find Kosmos-2482

NORAD ID: 39057 Int'l Des: 2013-001 Owner: VVKO Country: RU operational
LEOCIRCULARPOLAR

Current View

Loading 3D Globe...

About Kosmos-2482

Description loading...

Upcoming Passes

Passes for default location (London). Set your location on the main map for personalized predictions.

Altitude History

Loading altitude history...

Two-Line Element Set

1 39057U 13001A 26149.60747032 -.00000064 00000-0 -53290-3 0 9994
2 39057 82.4997 231.9145 0028564 67.2805 293.1289 12.42995240606401
Epoch: May 29, 2026 • Age: 10 hours

Current Status

Altitude 1484.2 km
Velocity 7.14 km/s
Sub-Earth Point 72.89°N, 0.24°W
Launch Date Jan 15, 2013
Age 13.3 years
Type other

Technical Details

Classification Payload
Mass 280.00 kg
Dry Mass 280.00 kg
Total Mass 280.00 kg
Length 1.60 m
Diameter 0.80 m
Span 7.00 m
Shape Cyl + Ant
Manufacturer RESH
Bus Type Strela-3M
Phase Status In Orbit
Owner/State VVKO/RU

Most Searched